GEFSNGP_con_cape1000_204.txt.gz
Probability
0 0 0 0 0 0 0 0 0 0 3 16 23 29 42 52 68 68 61 65 71 71 74 71 71 74 74 71 61 61 58 55 55 55 58 58 48 48 45 39 35 32 32 29
0 0 0 0 0 0 0 0 0 0 13 19 39 39 48 55 65 68 65 68 71 74 74 74 71 74 74 65 65 61 61 55 55 55 55 55 48 45 42 32 32 32 26 26
0 0 0 0 0 0 0 0 0 3 13 23 32 45 55 55 65 71 58 65 71 71 77 74 74 71 71 68 61 61 61 58 55 55 48 52 45 42 35 35 32 26 26 19
0 0 0 0 0 0 0 0 0 10 16 26 39 52 55 61 61 71 65 71 68 71 68 71 68 68 68 68 61 61 61 58 55 52 48 45 45 42 35 32 32 26 23 19
0 0 0 0 0 0 0 6 10 19 26 26 32 42 58 65 68 71 58 71 71 71 68 68 68 65 71 68 61 61 58 55 48 48 42 39 39 42 32 29 29 23 19 13
0 0 0 0 0 0 0 6 16 26 26 32 35 42 61 71 71 68 71 65 74 68 61 65 65 65 65 65 55 55 55 55 52 48 39 39 39 35 35 32 29 16 13 10
3 0 0 0 3 0 3 23 29 29 42 42 61 68 68 68 71 68 68 71 74 68 65 71 68 68 68 65 61 55 55 48 52 48 42 39 32 32 32 29 26 19 13 6
3 3 6 13 6 19 68 71 39 48 58 55 58 58 68 68 65 68 71 65 61 68 71 71 68 68 68 61 61 55 52 52 48 42 29 29 29 32 29 26 19 16 10 6
16 13 52 32 52 55 52 48 48 58 58 52 55 61 68 61 65 61 61 61 61 55 68 65 68 61 61 58 55 52 48 48 42 39 32 23 23 23 23 23 16 10 10 3
42 39 29 35 42 39 39 45 48 48 42 45 58 58 65 58 61 61 65 61 55 58 58 65 61 61 61 58 52 45 42 39 39 32 32 23 23 16 16 19 16 13 13 13
35 39 39 45 42 45 45 42 48 42 42 42 58 68 65 74 58 65 61 61 58 52 55 55 55 58 55 55 45 39 35 29 26 26 26 29 16 16 13 19 13 10 10 13
32 55 48 52 55 48 48 42 42 39 39 52 58 65 65 65 58 65 61 61 58 52 48 52 52 52 55 55 52 39 26 26 23 26 23 16 13 3 3 3 0 0 0 3
32 39 45 52 52 48 52 52 52 52 48 48 45 58 61 61 61 61 65 61 58 52 52 52 52 55 58 55 45 48 35 29 23 16 19 16 16 10 3 3 0 0 0 0
39 48 45 45 48 48 48 45 52 55 45 45 48 52 55 55 55 61 55 55 52 48 48 52 52 52 55 48 45 45 32 23 23 19 23 19 19 16 10 6 6 0 0 0
42 48 48 45 45 45 45 45 42 39 48 45 48 45 48 48 52 52 48 48 45 48 45 42 48 52 48 42 39 35 32 26 26 23 19 16 16 19 16 10 6 6 0 0
39 42 42 39 35 42 35 39 39 35 29 32 42 42 45 48 48 48 48 48 42 42 42 45 52 48 45 39 39 35 32 16 26 19 16 16 13 13 6 6 6 6 3 0
35 42 39 35 32 32 35 29 32 26 19 23 32 32 39 39 45 52 48 45 45 42 35 39 39 42 32 32 32 29 29 16 0 13 16 16 13 13 6 6 6 6 6 0
29 32 35 32 32 32 32 29 29 23 16 23 23 29 29 39 42 39 45 42 35 42 35 35 35 29 26 26 29 29 29 16 16 13 13 13 19 13 10 6 6 6 3 0
19 23 23 19 23 23 19 23 23 19 23 26 23 26 29 39 39 39 35 35 35 29 32 29 19 26 23 19 23 32 16 13 10 10 10 3 3 3 3 6 6 3 0 0
16 23 23 19 23 23 19 26 23 19 19 19 19 26 32 32 35 35 29 26 26 23 26 19 16 26 23 16 10 13 13 13 10 10 6 6 3 3 3 6 3 0 0 0
13 16 16 16 16 19 19 23 19 19 19 16 23 29 23 23 23 32 23 16 19 23 13 3 19 23 13 10 3 10 13 13 10 10 6 6 3 6 3 0 0 0 0 0
13 10 10 13 13 16 26 26 23 23 23 19 19 19 16 26 29 35 26 26 23 10 13 10 13 13 6 0 10 10 10 6 6 10 6 6 3 3 3 3 0 3 0 0
10 19 16 16 19 23 23 19 19 19 23 23 26 23 19 29 23 19 19 23 16 3 10 13 3 0 0 0 3 10 3 6 6 6 6 6 10 6 6 3 3 3 0 0
16 23 19 16 16 19 19 16 19 26 19 23 23 23 19 19 16 16 10 6 6 0 6 0 0 0 0 3 3 3 0 3 3 3 3 6 6 10 10 10 6 3 0 0
16 16 19 16 19 19 19 13 13 23 13 13 19 19 19 13 10 10 13 6 0 0 3 0 0 0 0 3 0 0 0 0 3 3 3 3 3 10 10 3 3 0 0 0
13 13 13 16 19 19 13 10 13 16 6 13 13 10 10 10 13 13 10 6 3 0 0 0 0 0 0 0 0 0 0 0 0 3 3 3 3 3 3 3 0 3 0 0
10 16 13 10 16 10 6 10 13 6 6 6 10 6 10 10 10 10 3 6 0 0 0 0 0 0 0 0 0 0 0 0 0 3 3 3 3 0 0 0 0 0 0 0

GEFSNGP_con_cape1000_210.txt.gz
Probability
0 0 0 0 0 0 0 0 0 3 6 10 16 29 32 35 32 39 35 35 39 45 45 48 48 42 48 45 45 52 52 52 42 39 32 26 26 23 19 23 23 16 13 10
0 0 0 0 0 0 0 0 0 3 6 10 13 32 32 35 39 39 39 39 45 48 48 52 48 48 55 52 48 48 52 48 45 32 29 26 26 23 19 19 16 13 13 10
0 0 0 0 0 0 0 3 3 10 13 13 26 32 35 35 42 35 39 45 52 55 52 52 55 48 52 55 52 48 42 45 35 32 29 26 26 26 23 13 6 6 6 3
0 0 0 0 0 3 3 6 6 13 13 16 26 32 32 35 32 35 39 52 52 55 55 52 55 52 52 52 48 48 45 39 35 32 29 26 26 26 13 6 6 6 6 6
0 0 0 0 0 6 10 10 13 13 19 23 35 39 42 35 42 39 48 55 58 61 55 52 48 52 45 48 45 42 45 35 32 32 29 29 26 23 16 10 6 6 6 6
0 0 0 0 0 3 10 16 19 16 23 23 29 42 45 45 39 39 55 55 48 45 52 52 48 48 42 45 42 39 35 32 32 32 32 26 23 19 16 10 6 6 6 3
0 0 0 3 6 0 0 16 19 23 23 32 39 39 42 35 39 32 39 48 45 42 42 42 42 45 39 39 29 26 29 26 26 29 26 26 19 19 10 6 6 6 6 3
0 0 3 10 19 10 10 16 32 29 32 29 29 35 29 29 29 35 39 35 45 42 39 39 45 45 39 29 26 29 29 23 26 23 19 26 23 10 6 6 6 6 3 3
3 3 6 16 16 13 13 29 32 29 29 32 35 26 32 29 29 32 35 39 42 42 35 35 42 39 35 32 26 26 26 16 19 19 16 13 16 6 6 6 6 6 3 3
13 16 19 23 13 13 23 26 32 32 32 35 29 26 26 32 32 35 32 39 39 35 35 35 35 39 35 35 26 23 19 16 19 19 16 13 13 6 6 6 6 3 3 3
16 23 19 26 26 23 23 26 32 29 29 32 29 32 35 35 39 39 42 39 39 35 39 39 39 35 32 29 23 23 23 19 19 16 16 13 10 6 6 6 6 3 3 3
13 13 13 23 26 23 23 29 29 29 26 26 23 23 29 32 39 42 39 39 42 39 35 35 32 29 29 26 23 23 26 23 16 16 13 6 6 0 0 0 0 0 0 3
6 6 10 26 26 23 29 26 29 23 19 19 23 26 23 29 29 35 42 45 45 39 39 32 29 26 23 23 23 23 26 19 19 16 10 10 3 3 0 0 0 0 0 0
6 10 13 19 19 23 23 23 19 19 16 19 23 23 19 16 23 29 29 35 39 39 32 29 29 26 23 23 19 16 23 19 16 13 13 6 6 3 0 0 0 0 0 0
10 6 6 10 16 13 16 13 13 13 6 10 19 23 16 23 23 32 29 32 32 35 32 29 23 19 19 19 19 19 19 13 13 16 13 6 6 3 0 0 0 0 0 0
6 6 6 13 13 6 6 10 13 10 6 6 13 19 19 23 23 26 29 32 32 32 23 23 23 16 16 19 16 16 13 13 10 3 6 3 3 3 0 0 0 0 0 0
3 0 0 10 10 6 3 10 10 6 10 10 10 16 19 23 23 26 26 23 26 26 19 16 13 13 19 16 10 10 3 3 3 3 3 3 3 3 0 0 0 0 0 0
0 0 0 10 6 6 10 13 10 10 10 10 10 16 23 19 19 26 26 26 23 23 16 13 10 10 10 16 13 6 3 0 0 0 0 3 3 0 0 0 0 0 0 0
3 3 3 6 6 6 6 6 6 6 6 6 6 10 16 19 23 19 29 32 29 26 23 16 10 10 10 10 10 3 0 0 0 0 0 0 0 0 0 0 0 0 0 0
6 10 10 6 6 6 6 6 3 3 3 6 10 6 10 19 19 19 19 23 19 19 19 10 10 13 10 10 6 6 6 3 0 0 0 0 0 0 0 0 0 0 0 0
6 6 10 6 6 6 6 6 3 3 6 6 6 6 6 10 19 23 23 23 19 19 13 6 6 10 10 10 3 6 6 3 3 0 0 0 0 0 0 0 0 0 0 0
3 10 10 10 6 6 6 3 3 6 6 6 6 6 6 6 13 16 19 16 10 6 6 3 10 10 10 6 3 3 6 3 3 0 0 0 0 0 0 0 0 0 0 0
3 6 10 10 10 6 6 6 6 6 6 6 6 6 6 6 13 16 19 10 6 3 6 6 6 0 0 3 3 3 0 3 0 0 0 0 3 3 0 0 0 0 0 0
6 6 6 6 6 6 6 6 6 3 3 3 3 6 6 6 6 6 10 3 3 3 3 3 0 0 0 0 0 0 0 0 0 0 0 0 3 3 3 0 0 0 0 0
3 3 3 3 3 3 3 3 3 3 3 3 3 3 0 0 3 3 3 3 3 0 3 0 0 0 0 0 0 0 0 0 0 0 0 3 3 3 3 0 0 0 0 0
3 3 3 3 3 3 3 3 3 3 3 3 0 0 0 0 3 3 3 3 3 0 0 0 0 0 0 0 0 0 0 0 0 0 0 0 0 0 3 3 0 0 0 0
0 0 0 0 0 3 0 3 3 3 3 0 0 0 0 0 6 6 3 3 0 0 0 0 0 0 0 0 0 0 0 0 0 0 0 0 0 0 0 0 0 0 0 0

GEFSNGP_con_cape1000_216.txt.gz
Probability
0 0 0 0 0 0 0 0 0 0 0 3 6 10 23 23 23 26 23 19 26 26 29 32 29 26 35 35 45 45 42 39 35 29 23 23 19 16 16 16 16 16 13 10
0 0 0 0 0 0 0 0 0 0 0 0 6 13 23 29 26 26 23 23 23 32 39 32 29 29 29 29 42 42 42 35 29 23 23 23 19 19 16 13 13 10 10 10
0 0 0 0 0 0 0 0 0 0 0 0 10 13 19 23 29 26 23 19 26 35 32 29 32 26 26 32 42 42 39 39 32 23 23 19 23 19 13 13 10 6 6 6
0 0 0 0 0 0 0 0 0 0 0 6 13 16 19 26 29 23 26 26 32 35 39 35 32 35 35 39 42 35 35 32 29 23 26 26 16 16 13 13 6 6 6 6
0 0 0 0 3 3 3 6 6 6 3 10 19 23 26 29 26 29 29 32 32 35 39 39 39 42 35 35 32 29 29 26 23 19 19 16 16 13 16 6 6 6 6 6
0 0 0 0 0 0 3 3 10 6 6 16 19 19 19 26 26 29 26 26 26 29 26 29 35 35 32 32 32 32 29 23 19 19 16 13 13 10 13 6 6 6 6 6
0 0 0 0 3 0 0 0 6 6 6 16 19 10 16 23 26 26 23 26 23 23 23 23 29 29 26 29 29 26 26 23 19 13 16 13 13 10 10 6 6 6 6 6
0 0 0 0 10 0 0 0 6 10 13 19 16 16 13 16 23 26 29 26 23 29 32 26 26 32 29 26 23 23 23 19 16 16 13 13 13 6 10 6 6 6 6 6
0 0 0 0 3 3 3 10 10 13 10 10 16 13 23 29 26 29 32 26 23 29 29 26 32 29 32 23 19 23 19 16 16 13 10 13 13 10 10 6 6 6 6 6
3 3 3 3 6 6 13 16 19 13 13 23 16 19 23 23 26 29 26 23 26 26 26 23 29 29 29 23 23 23 16 16 13 13 13 10 6 10 10 6 6 6 6 6
3 3 6 13 6 13 13 16 19 16 19 19 19 19 19 19 19 23 26 26 26 23 23 23 19 23 19 19 23 19 13 13 13 13 13 6 6 10 6 6 6 6 6 6
6 10 6 6 6 16 23 19 23 23 13 19 19 19 19 16 16 19 23 29 26 23 19 23 19 16 16 16 23 16 16 13 13 13 13 6 10 6 3 0 3 3 3 3
0 0 6 6 10 16 19 19 16 16 13 13 13 16 16 19 19 23 26 32 29 26 19 13 19 19 16 19 19 19 19 13 13 13 13 13 13 6 3 3 0 0 0 0
0 3 6 6 10 10 6 3 6 6 10 13 16 19 19 19 16 23 23 26 26 26 23 16 19 19 16 19 23 16 19 13 16 16 10 10 13 6 3 3 3 3 0 0
6 3 6 6 3 3 3 3 3 6 6 10 13 16 19 19 13 10 16 16 23 23 19 19 23 16 16 16 16 10 10 10 13 6 6 10 6 6 0 0 0 0 3 3
3 6 6 3 3 0 3 3 0 3 3 6 10 6 10 13 13 10 13 19 19 16 13 19 19 16 16 16 13 13 13 6 6 3 3 3 3 0 0 0 0 0 3 3
6 6 3 0 0 3 0 0 0 0 3 6 3 6 6 10 13 10 13 16 13 13 13 13 16 13 16 13 13 13 10 6 6 3 3 3 3 3 0 0 0 0 3 3
0 0 3 3 0 0 0 0 0 3 3 6 3 6 6 6 3 6 10 13 13 16 13 13 10 13 10 6 6 6 6 6 3 3 3 3 3 3 0 0 0 3 3 3
3 3 0 0 0 0 0 0 0 0 3 3 6 3 3 3 3 3 13 16 16 16 13 6 6 6 6 10 6 6 6 6 3 3 3 3 3 3 0 0 0 0 0 0
3 3 0 0 0 0 0 0 0 3 3 3 3 3 3 3 6 10 13 13 13 13 10 3 6 10 6 6 3 6 6 6 3 0 0 0 0 0 0 0 0 0 3 3
0 0 0 0 0 0 0 0 3 3 3 3 3 3 3 3 6 10 10 13 13 10 3 3 3 6 6 6 3 6 6 3 3 0 0 0 0 0 0 0 0 0 0 0
0 0 0 0 3 3 3 3 3 3 3 3 3 3 3 3 3 10 10 10 6 3 3 3 6 6 6 3 6 6 6 6 6 6 0 0 0 0 0 0 0 0 0 0
0 0 3 3 6 6 3 3 3 3 3 3 3 3 3 3 6 6 6 6 3 3 3 3 6 6 3 6 6 6 6 6 6 6 0 0 0 0 0 0 0 0 0 0
0 0 3 6 3 3 3 3 3 3 3 3 3 3 3 6 3 3 3 0 0 3 3 0 0 0 0 3 3 3 3 3 3 3 0 0 0 0 0 0 0 0 0 0
3 3 3 3 3 3 3 0 0 0 0 0 0 3 3 3 3 0 0 0 0 0 0 0 0 0 0 3 3 3 3 3 3 3 3 0 0 0 0 0 0 0 0 0
3 3 0 0 0 0 0 0 0 0 0 0 3 0 0 0 0 0 0 0 0 0 0 0 0 0 0 3 3 3 3 3 3 0 0 0 0 0 0 0 0 0 0 0
0 0 0 0 0 0 0 0 0 0 0 3 0 0 0 0 0 0 0 0 0 0 0 0 0 0 3 3 0 0 0 0 0 0 0 0 0 0 0 0 0 0 0 0

GEFSNGP_con_cape1000_222.txt.gz
Probability
0 0 0 0 0 0 0 0 0 0 0 6 26 32 39 35 48 61 74 68 65 61 61 68 71 65 65 68 65 65 61 61 61 58 58 55 52 45 42 42 32 32 32 32
0 0 0 0 0 0 0 0 0 0 3 13 29 32 32 42 52 65 74 71 71 68 68 71 74 65 65 65 65 68 61 58 58 58 52 55 52 42 42 35 32 32 32 26
0 0 0 0 0 0 3 3 3 3 6 19 26 42 42 48 61 58 68 71 71 74 71 71 74 68 65 65 65 65 61 61 58 52 52 52 39 42 39 35 32 32 29 26
0 0 0 0 3 3 3 3 3 13 13 26 32 52 48 45 52 61 71 71 74 74 68 65 65 65 61 61 61 61 58 61 52 52 48 52 45 39 39 42 32 29 29 26
0 0 0 0 3 3 3 3 10 19 19 23 39 42 39 42 48 65 61 71 74 68 58 61 55 65 65 65 58 58 61 58 55 52 48 45 45 32 35 35 39 32 26 19
0 0 0 0 3 6 6 10 19 23 26 35 39 29 35 48 58 58 58 65 68 65 58 55 58 61 61 65 61 61 55 52 52 45 45 42 35 35 32 29 32 26 23 16
0 0 0 6 6 6 3 16 29 32 42 42 35 35 55 58 55 61 61 58 58 58 61 55 58 61 61 65 61 58 52 48 45 45 42 35 32 32 29 26 26 16 23 13
0 0 3 13 10 19 32 39 45 39 45 45 45 55 55 58 65 65 58 55 58 65 61 58 58 61 61 61 52 48 48 48 45 45 35 32 32 29 26 23 23 23 23 10
3 3 26 23 29 32 39 45 52 48 45 45 39 45 45 48 58 61 52 55 55 61 58 55 55 58 61 45 52 48 45 48 39 35 35 35 29 26 26 19 16 13 10 10
13 26 35 35 39 39 39 42 45 42 45 39 39 45 52 48 55 58 48 48 55 55 61 65 58 55 48 42 42 48 45 39 32 29 29 32 29 23 16 13 13 10 6 10
26 32 32 35 35 39 35 45 39 39 39 42 42 45 52 48 45 42 45 52 48 52 58 52 48 45 42 42 42 39 42 32 32 23 23 29 19 23 19 23 13 13 6 10
19 29 29 32 35 35 35 39 42 35 39 42 45 45 48 45 48 45 42 58 52 45 48 48 42 42 42 42 42 39 35 29 26 26 26 16 13 13 10 6 0 0 3 3
26 26 29 32 32 35 35 35 45 45 45 45 42 35 45 42 39 32 42 42 45 45 39 45 42 35 35 35 42 39 35 29 23 23 23 16 16 16 13 3 0 0 0 0
26 29 26 26 35 32 35 39 35 32 29 29 32 39 35 26 32 32 29 32 35 39 39 35 35 35 32 32 42 39 29 19 26 26 19 16 16 16 13 10 10 3 0 0
23 23 23 23 19 23 32 35 32 26 23 23 19 19 26 29 29 23 29 32 35 32 35 35 35 35 29 29 32 29 26 26 19 16 16 16 16 16 13 13 10 13 3 0
19 19 23 23 23 19 19 23 16 16 19 19 19 19 23 26 26 26 19 32 35 32 39 35 35 32 32 29 32 32 26 16 16 16 16 16 13 13 13 16 16 13 3 0
16 16 19 13 13 13 16 16 10 10 13 13 23 23 23 16 23 23 32 35 42 39 29 35 35 32 32 29 32 29 23 16 13 16 16 16 16 6 13 13 10 13 10 0
13 16 16 13 13 13 16 10 6 6 10 10 13 13 13 19 23 23 23 26 35 29 29 29 32 32 32 29 29 26 23 16 16 16 16 13 16 10 10 10 10 10 10 0
10 10 13 10 13 10 10 10 6 3 6 3 6 10 10 16 13 23 23 19 23 23 26 26 26 29 32 32 23 35 19 19 19 19 16 10 13 10 10 10 13 13 13 6
10 6 6 6 6 3 6 6 10 6 3 3 3 3 3 6 13 19 19 16 16 16 16 23 29 26 23 26 16 16 23 19 19 19 16 16 16 16 13 13 13 13 13 10
6 3 0 6 3 3 3 3 3 3 3 3 3 3 6 6 10 13 16 13 16 13 13 10 16 16 16 10 3 10 10 10 10 13 16 13 13 13 13 13 13 13 13 6
3 3 3 3 6 6 3 3 3 3 3 3 3 3 6 6 6 10 10 10 10 10 13 13 13 10 10 10 10 10 6 10 10 10 13 13 13 10 10 10 13 13 13 10
6 3 3 3 3 6 6 6 3 3 6 6 6 6 3 3 3 10 6 10 10 3 13 16 6 0 3 6 10 10 10 13 13 13 10 13 13 13 13 13 13 13 6 3
3 3 3 3 3 3 6 6 6 6 6 10 10 10 3 3 3 3 3 3 3 3 13 6 0 0 0 10 10 10 10 16 10 10 10 10 13 13 13 13 13 10 6 3
3 3 3 3 3 3 3 3 3 10 10 10 6 6 3 3 3 3 3 3 3 3 6 0 0 0 3 6 6 6 6 10 13 13 6 6 6 6 10 10 6 6 6 3
6 6 6 6 3 3 3 6 6 6 6 6 6 3 3 3 3 3 6 3 3 3 6 6 3 0 3 3 3 0 10 6 6 6 10 10 10 6 6 6 6 6 3 0
3 3 3 3 6 6 6 6 6 6 6 3 3 3 3 3 3 3 3 3 6 6 6 6 3 0 3 3 0 6 13 13 13 10 10 6 6 6 3 3 6 6 3 0

GEFSNGP_con_cape1000_228.txt.gz
Probability
0 0 0 0 0 0 0 0 0 6 3 13 19 23 26 39 32 42 45 58 81 81 84 81 77 81 74 71 77 71 65 65 71 71 68 68 68 65 65 58 55 52 48 45
0 0 0 0 0 0 0 0 0 0 10 19 29 29 35 39 39 42 55 61 77 84 87 84 84 81 81 71 74 74 71 68 71 71 68 68 68 65 58 58 55 52 48 45
0 0 0 0 0 0 0 3 6 6 13 16 23 35 45 45 45 48 55 68 77 77 84 87 81 81 77 71 74 74 71 71 71 71 65 65 65 58 55 55 52 52 45 32
0 0 0 0 0 0 10 6 10 16 23 23 23 35 45 52 58 61 71 77 81 77 71 81 81 81 71 71 71 68 68 58 58 58 58 58 58 52 55 48 48 48 35 32
0 0 0 3 3 3 10 13 16 16 19 23 32 39 52 55 61 68 68 71 74 71 68 68 74 71 68 65 65 68 68 61 61 61 61 58 52 45 48 48 52 52 35 32
6 0 0 0 6 3 6 10 16 23 23 29 35 35 55 58 61 65 65 71 74 68 65 68 71 71 68 65 65 65 65 68 61 58 55 52 48 48 48 52 48 45 32 32
0 0 3 3 3 3 6 29 32 35 32 39 55 58 58 55 58 65 71 74 77 77 71 68 68 68 65 61 58 58 61 65 61 55 52 48 45 48 45 45 39 39 29 32
3 0 0 13 6 23 42 45 42 42 39 58 58 55 55 55 68 71 71 65 71 77 74 65 65 71 65 58 55 55 61 61 61 58 48 48 52 42 39 42 42 39 29 29
10 13 35 32 42 45 39 42 42 42 45 52 52 52 55 58 65 68 61 65 65 71 68 61 68 71 68 68 61 58 55 58 55 52 52 52 45 39 39 42 39 35 29 29
29 35 29 29 35 35 32 35 39 39 45 48 48 55 55 61 61 61 65 68 65 61 55 61 65 65 65 65 61 55 48 48 52 55 52 48 42 39 39 39 39 35 26 26
35 42 29 29 29 26 35 39 39 45 48 48 48 48 48 58 58 65 65 68 65 61 65 58 65 65 65 65 58 52 45 48 45 45 39 42 35 29 29 32 26 23 32 29
35 42 39 39 35 32 39 39 45 48 48 48 48 48 52 48 52 55 61 58 68 65 65 55 55 55 58 58 58 52 45 52 48 42 35 29 23 16 13 10 6 0 3 6
39 32 35 39 35 42 45 42 45 42 42 42 45 45 48 52 55 55 55 58 65 55 52 48 42 48 48 52 52 48 45 48 45 42 39 26 23 19 16 6 0 0 0 0
29 35 32 35 35 42 39 42 42 42 42 39 39 45 45 48 48 45 52 48 52 48 42 39 39 42 42 45 48 45 42 39 39 35 39 35 26 26 23 16 13 13 0 0
29 39 39 39 39 39 39 42 42 42 42 39 42 42 42 42 39 39 45 45 45 39 35 32 35 42 42 45 45 45 39 42 42 39 35 32 29 23 23 23 23 16 6 3
26 35 35 32 32 39 39 39 42 42 42 39 39 39 35 35 39 39 42 39 39 32 35 42 39 45 39 42 45 42 42 39 39 42 32 26 26 19 19 23 19 19 13 6
23 26 23 26 23 26 26 32 35 35 35 32 32 35 32 35 35 35 39 35 45 39 39 39 39 39 39 45 45 39 35 29 19 26 35 26 26 19 19 19 19 19 19 6
23 19 23 23 19 26 26 23 16 19 19 26 29 26 29 29 29 35 42 35 42 39 39 35 39 45 45 42 45 42 32 35 32 23 26 29 26 23 19 19 19 19 16 3
23 19 19 19 23 19 16 10 13 16 19 19 19 19 26 26 29 39 42 45 39 35 42 42 23 39 42 42 39 45 29 32 29 29 29 23 26 23 23 23 19 19 19 13
13 13 19 16 16 13 10 10 10 13 13 16 16 19 19 16 19 23 32 29 32 35 42 29 39 39 35 35 23 29 29 29 26 26 29 23 23 23 23 19 16 16 16 13
16 10 13 13 10 10 10 10 10 10 13 10 13 16 16 16 16 23 19 29 42 29 29 19 26 29 23 26 13 26 23 29 29 26 29 23 23 19 16 16 16 13 13 13
13 13 13 10 13 3 3 6 6 10 13 10 10 13 16 19 16 19 23 19 19 10 13 16 19 10 13 10 13 16 16 16 19 29 26 23 19 16 16 16 13 13 10 10
16 13 10 6 3 6 6 6 10 13 16 16 10 10 13 16 13 13 13 13 13 6 10 10 6 10 6 10 10 13 13 13 19 19 16 19 19 19 19 13 13 13 10 10
6 10 10 6 0 0 0 3 6 6 13 13 13 10 10 13 13 13 13 3 3 3 6 6 0 0 6 10 13 13 13 16 13 10 10 16 16 13 13 13 13 10 10 10
3 6 3 6 3 0 0 3 3 10 13 10 10 6 6 6 6 10 10 3 3 3 3 0 0 0 6 6 10 10 13 13 10 10 3 6 6 13 13 13 10 6 6 6
3 3 6 6 6 3 3 3 3 3 3 6 6 6 3 6 10 10 13 3 3 3 3 3 6 3 3 6 10 13 6 3 6 0 0 3 3 3 6 6 10 10 6 6
6 10 16 6 6 3 3 3 3 3 3 3 6 6 6 6 6 6 6 3 3 3 3 3 3 3 3 0 3 10 10 10 6 6 3 3 3 3 3 3 3 3 3 6